Location: Peterborough
(44.3091°N, 78.3197°W)
Time: 16:35:47
(UTC-04:00)

Transit 4A - Pass Details

Date: 27 March 2023
Orbit: 864 x 980 km, 66.8° (Epoch: 04 June)

Event Time Altitude Azimuth Distance (km) Brightness Sun altitude
Rises 16:19:52 0° 324° (NW) 3,570 11.0 32.4°
Reaches altitude 10° 16:22:23 10° 321° (NW) 2,641 10.5 32.0°
Maximum altitude 16:28:24 57° 245° (WSW) 1,113 9.8 31.1°
Drops below altitude 10° 16:34:32 10° 168° (SSE) 2,696 10.6 30.2°
Sets 16:37:09 0° 164° (SSE) 3,649 11.2 29.8°
